パンスターズ彗星

C/2016 VZ18 ( PanSTARRS )

English version
Home page
Updated on July 8, 2017

---------------------------------------------------------------------

・ プロフィール

発見日 2016年11月6日
発見光度 21.8等
発見者 Pan-STARRS 1 telescope (Haleakala)

・ 写真集

・ 軌道要素

Epoch 2017 Feb. 16.0 TT = JDT 2457800.5
T 2017 Mar. 7.38008 TT                                  MPCW
q   0.9102662            (2000.0)            P               Q
z  +0.0051387      Peri.   36.38620     -0.66049091     -0.63393479
 +/-0.0000015      Node    98.95470     +0.55611968     -0.77306720
e   0.9953225      Incl.   24.03569     +0.50446274     +0.02222110
From 327 observations 2016 Oct. 8-2017 May 29, mean residual 0".5.

・ 星図

・ 光度変化

        m1 = 18.0 + 5 logΔ + 10.0 log r  [   ,-35]  (              〜2017年 1月31日)
        m1 = 16.0 + 5 logΔ + 55   log r  [-35, 35]  (2017年 1月31日〜2017年 4月11日)
        m1 = 18.0 + 5 logΔ + 10.0 log r  [ 35,   ]  (2017年 4月11日〜              )

---------------------------------------------------------------------

軌道要素はM.P.E.C. 2017-N58に掲載されたものです。
星図はステラナビゲータ Ver.10 (アストロアーツ) で作成したものです。
光度グラフはComet for Windowsで作成したものです。

---------------------------------------------------------------------

Copyright(C) Seiichi Yoshida (comet@aerith.net). All rights reserved.